Location: Newark
(43.6583°N, 1.6617°E)
Time: 05:18:26
(UTC+00:00)

Vanguard 1 Rocket - Pass Details

Date: 24 August 2019
Orbit: 651 x 4225 km, 34.3° (Epoch: 19 September)

Event Time Altitude Azimuth Distance (km) Brightness Sun altitude
Rises 02:52:20 0° 244° (WSW) 2,955 - -22.0°
Reaches altitude 10° 02:54:40 10° 232° (SW) 2,083 - -21.7°
Exits shadow 02:58:25 30° 174° (S) 1,348 7.9 -21.2°
Maximum altitude 02:58:37 30° 170° (S) 1,356 8.0 -21.2°
Drops below altitude 10° 03:03:53 10° 111° (ESE) 2,802 10.3 -20.5°
Sets 03:07:35 0° 101° (ESE) 4,213 11.4 -20.0°
